Regional Weather Roundup
Issued by NWS

Home | Current Version | Previous Version | Text Only | Print | Product List | Glossary Off
Versions: 1 2 3 4 5 6 7 8 9 10 11 12 13 14 15 16 17 18 19 20 21 22 23 24 25 26 27 28 29 30 31 32 33 34 35 36 37 38 39 40 41 42 43 44 45 46 47 48 49 50

000
ASUS43 KFSD 251010
RWRSD

WEATHER ROUNDUP FOR SOUTH DAKOTA
NATIONAL WEATHER SERVICE SIOUX FALLS SD
500 AM CDT WED MAY 25 2016

NOTE: "FAIR" INDICATES FEW OR NO CLOUDS BELOW 12,000 FEET WITH NO
SIGNIFICANT WEATHER AND/OR OBSTRUCTIONS TO VISIBILITY.


SDZ001>005-009-010-012>017-251100-
NORTHWEST AND NORTH CENTRAL SOUTH DAKOTA

CITY           SKY/WX    TMP DP  RH WIND       PRES   REMARKS
BUFFALO          N/A     49  46  90 S6        29.77R
FAITH            N/A     52  47  83 E9        29.78F
MOBRIDGE       RAIN      58  52  80 E17G30    29.79F
$$

SDZ012>016-024>037-041>051-057-063-072>074-251100-
SOUTHWEST AND SOUTH CENTRAL SOUTH DAKOTA

CITY           SKY/WX    TMP DP  RH WIND       PRES   REMARKS
RAPID CTY ARPT CLOUDY    46  45  96 W7        29.84S
PIERRE         CLOUDY    57  54  89 N9        29.73F
CUSTER         CLEAR     41  38  89 CALM      29.89S FOG
ELLSWORTH AFB  CLOUDY    48  48  99 SW9       29.83S
PHILIP         PTCLDY    51  49  92 W3        29.79F
PINE RIDGE     CLOUDY    49  46  90 SW3       29.85R
WINNER         CLOUDY    59  56  89 W6        29.80R
$$

SDZ004>011-016>023-039-040-251100-
NORTHEAST SOUTH DAKOTA

CITY           SKY/WX    TMP DP  RH WIND       PRES   REMARKS
ABERDEEN       TSTM      61  56  83 W16       29.77F
WATERTOWN      CLOUDY    67  60  78 CALM      29.78F
BROOKINGS      CLOUDY    66  62  87 SE14      29.76S
SISSETON         N/A     59  52  77 CALM      29.78F
$$

SDZ017-020-022-023-036>040-048>070-251100-
SOUTHEAST SOUTH DAKOTA

CITY           SKY/WX    TMP DP  RH WIND       PRES   REMARKS
SIOUX FALLS    TSTM      60  58  92 SW8G24    29.80R
HURON          RAIN      60  59  96 NE13      29.73S
CHAMBERLAIN    MOCLDY    61  59  94 CALM      29.75R
MITCHELL       LGT RAIN  60  59  96 E12       29.68F
YANKTON        CLOUDY    59  55  88 NW13      29.72F
$$

ABBREVIATIONS USED IN REMARKS
   TC - TEMPERATURE IN CELSIUS
  WCI - WIND CHILL INDEX
   HX - HEAT INDEX
  VSB - VISIBILITY





USA.gov is the U.S. government's official web portal to all federal, state and local government web resources and services.